Location: Central Falls
(41.8900°N, 71.3929°W)
Time: 03:01:35
(UTC+00:00)

Vanguard 2 - Pass Details

Date: 07 December 2023
Orbit: 554 x 2918 km, 32.9° (Epoch: 01 March)

Event Time Altitude Azimuth Distance (km) Brightness Sun altitude
Rises 23:53:30 0° 218° (SW) 6,498 12.8 -28.8°
Reaches altitude 10° 23:58:08 10° 211° (SSW) 5,636 12.3 -29.7°
Maximum altitude 00:13:27 38° 152° (SSE) 3,811 10.7 -32.5°
Enters shadow 00:16:34 36° 132° (SE) 3,834 10.6 -33.1°
Drops below altitude 10° 00:27:01 10° 92° (E) 5,040 - -35.1°
Sets 00:30:50 0° 84° (E) 5,774 - -35.8°
